Pleiades-Orpheus

operational
NORAD ID: 62387 Int'l Des: NNA 2024-247 Owner: BRONC Country: US
LEOCIRCULAR

关于 Pleiades-Orpheus

正在加载描述...

实时位置

正在加载3D地球...

即将过境

高度历史

Altitude vs Time

uPlot chart will show altitude changes over time

两行轨道根数

1 62387U 24247L 26061.23556800 .00043881 00000-0 94142-3 0 9996
2 62387 44.9919 131.6431 0009037 331.6858 28.3539 15.44041589 66908
Epoch: Mar 2, 2026 • Age: 29 hours

当前状态

高度 441.1 km
速度 7.65 km/s
星下点 39.36°N, 8.71°E
发射日期 Dec 21, 2024
运行时间 1.1 years
类型 other

技术详情

分类 Payload
质量 1.00 kg
干质量 1.00 kg
总质量 1.00 kg
长度 0.10 m
直径 0.10 m
跨度 0.10 m
形状 Box
制造商 BRONC/STANSI
平台类型 Cubesat 1U
阶段状态 In Orbit
所有者/国家 BRONC/US

大型星座

Loading constellations...